date,time,SUV Intensity [MED/Hr],UV Index,Daily total [MED],Since Last [MED]
18/12/2022,00:00:40,0.000,0.0,0.0,0.0
18/12/2022,00:01:40,-0.001,0.0,0.0,0.0
18/12/2022,00:02:41,-0.001,0.0,0.0,0.0
18/12/2022,00:03:41,0.000,0.0,0.0,0.0
18/12/2022,00:04:41,0.001,0.0,0.0,0.0
18/12/2022,00:05:40,0.000,0.0,0.0,0.0
18/12/2022,00:06:41,-0.000,0.0,0.0,0.0
18/12/2022,00:07:40,0.000,0.0,0.0,0.0
18/12/2022,00:08:41,-0.000,0.0,0.0,0.0
18/12/2022,00:09:40,-0.000,0.0,0.0,0.0
18/12/2022,00:10:41,0.000,0.0,0.0,0.0
18/12/2022,00:11:40,0.000,0.0,0.0,0.0
18/12/2022,00:12:41,-0.001,0.0,0.0,0.0
18/12/2022,00:13:41,0.000,0.0,0.0,0.0
18/12/2022,00:14:40,0.001,0.0,0.0,0.0
18/12/2022,00:15:40,0.000,0.0,0.0,0.0
18/12/2022,00:16:40,0.001,0.0,0.0,0.0
18/12/2022,00:17:41,0.001,0.0,0.0,0.0
18/12/2022,00:18:40,-0.000,0.0,0.0,0.0
18/12/2022,00:19:41,-0.001,0.0,0.0,0.0
18/12/2022,00:20:40,0.000,0.0,0.0,0.0
18/12/2022,00:21:41,0.000,0.0,0.0,0.0
18/12/2022,00:22:40,0.000,0.0,0.0,0.0
18/12/2022,00:23:40,0.000,0.0,0.0,0.0
18/12/2022,00:24:41,0.000,0.0,0.0,0.0
18/12/2022,00:25:40,0.000,0.0,0.0,0.0
18/12/2022,00:26:41,0.001,0.0,0.0,0.0
18/12/2022,00:27:41,0.000,0.0,0.0,0.0
18/12/2022,00:28:41,0.000,0.0,0.0,0.0
18/12/2022,00:29:40,-0.001,0.0,0.0,0.0
18/12/2022,00:30:41,-0.001,0.0,0.0,0.0
18/12/2022,00:31:40,0.000,0.0,0.0,0.0
18/12/2022,00:32:41,0.000,0.0,0.0,0.0
18/12/2022,00:33:40,-0.001,0.0,0.0,0.0
18/12/2022,00:34:41,-0.001,0.0,0.0,0.0
18/12/2022,00:35:40,-0.001,0.0,0.0,0.0
18/12/2022,00:36:40,-0.000,0.0,0.0,0.0
18/12/2022,00:37:41,0.000,0.0,0.0,0.0
18/12/2022,00:38:40,0.000,0.0,0.0,0.0
18/12/2022,00:39:41,0.001,0.0,0.0,0.0
18/12/2022,00:40:41,0.000,0.0,0.0,0.0
18/12/2022,00:41:41,-0.000,0.0,0.0,0.0
18/12/2022,00:42:40,0.000,0.0,0.0,0.0
18/12/2022,00:43:41,0.000,0.0,0.0,0.0
18/12/2022,00:44:40,-0.001,0.0,0.0,0.0
18/12/2022,00:45:41,0.001,0.0,0.0,0.0
18/12/2022,00:46:41,0.000,0.0,0.0,0.0
18/12/2022,00:47:40,0.000,0.0,0.0,0.0
18/12/2022,00:48:40,-0.000,0.0,0.0,0.0
18/12/2022,00:49:40,0.000,0.0,0.0,0.0
18/12/2022,00:50:40,0.000,0.0,0.0,0.0
18/12/2022,00:51:41,-0.000,0.0,0.0,0.0
18/12/2022,00:52:41,0.001,0.0,0.0,0.0
18/12/2022,00:53:41,-0.000,0.0,0.0,0.0
18/12/2022,00:54:41,0.000,0.0,0.0,0.0
18/12/2022,00:55:41,0.000,0.0,0.0,0.0
18/12/2022,00:56:40,-0.000,0.0,0.0,0.0
18/12/2022,00:57:41,-0.001,0.0,0.0,0.0
18/12/2022,00:58:40,0.001,0.0,0.0,0.0
18/12/2022,00:59:40,0.000,0.0,0.0,0.0
18/12/2022,01:00:41,0.001,0.0,0.0,0.0
18/12/2022,01:01:41,0.000,0.0,0.0,0.0
18/12/2022,01:02:41,-0.000,0.0,0.0,0.0
18/12/2022,01:03:41,-0.001,0.0,0.0,0.0
18/12/2022,01:04:40,-0.000,0.0,0.0,0.0
18/12/2022,01:05:41,0.000,0.0,0.0,0.0
18/12/2022,01:06:40,0.000,0.0,0.0,0.0
18/12/2022,01:07:41,0.000,0.0,0.0,0.0
18/12/2022,01:08:40,-0.000,0.0,0.0,0.0
18/12/2022,01:09:41,-0.001,0.0,0.0,0.0
18/12/2022,01:10:41,-0.000,0.0,0.0,0.0
18/12/2022,01:11:41,-0.001,0.0,0.0,0.0
18/12/2022,01:12:41,-0.001,0.0,0.0,0.0
18/12/2022,01:13:41,-0.000,0.0,0.0,0.0
18/12/2022,01:14:41,0.000,0.0,0.0,0.0
18/12/2022,01:15:41,0.000,0.0,0.0,0.0
18/12/2022,01:16:40,0.000,0.0,0.0,0.0
18/12/2022,01:17:41,-0.000,0.0,0.0,0.0
18/12/2022,01:18:40,0.000,0.0,0.0,0.0
18/12/2022,01:19:41,0.000,0.0,0.0,0.0
18/12/2022,01:20:40,0.000,0.0,0.0,0.0
18/12/2022,01:21:41,-0.001,0.0,0.0,0.0
18/12/2022,01:22:41,0.000,0.0,0.0,0.0
18/12/2022,01:23:41,0.000,0.0,0.0,0.0
18/12/2022,01:24:41,0.000,0.0,0.0,0.0
18/12/2022,01:25:41,0.001,0.0,0.0,0.0
18/12/2022,01:26:41,0.001,0.0,0.0,0.0
18/12/2022,01:27:41,0.000,0.0,0.0,0.0
18/12/2022,01:28:40,0.000,0.0,0.0,0.0
18/12/2022,01:29:41,-0.001,0.0,0.0,0.0
18/12/2022,01:30:41,-0.000,0.0,0.0,0.0
18/12/2022,01:31:41,0.000,0.0,0.0,0.0
18/12/2022,01:32:40,-0.000,0.0,0.0,0.0
18/12/2022,01:33:41,0.000,0.0,0.0,0.0
18/12/2022,01:34:40,-0.000,0.0,0.0,0.0
18/12/2022,01:35:41,-0.001,0.0,0.0,0.0
18/12/2022,01:36:40,-0.001,0.0,0.0,0.0
18/12/2022,01:37:41,0.000,0.0,0.0,0.0
18/12/2022,01:38:41,-0.000,0.0,0.0,0.0
18/12/2022,01:39:40,0.000,0.0,0.0,0.0
18/12/2022,01:40:41,0.000,0.0,0.0,0.0
18/12/2022,01:41:41,0.000,0.0,0.0,0.0
18/12/2022,01:42:41,0.001,0.0,0.0,0.0
18/12/2022,01:43:41,0.001,0.0,0.0,0.0
18/12/2022,01:44:40,0.000,0.0,0.0,0.0
18/12/2022,01:45:41,0.000,0.0,0.0,0.0
18/12/2022,01:46:40,-0.001,0.0,0.0,0.0
18/12/2022,01:47:41,0.001,0.0,0.0,0.0
18/12/2022,01:48:40,0.001,0.0,0.0,0.0
18/12/2022,01:49:41,0.001,0.0,0.0,0.0
18/12/2022,01:50:40,0.000,0.0,0.0,0.0
18/12/2022,01:51:41,0.001,0.0,0.0,0.0
18/12/2022,01:52:40,0.001,0.0,0.0,0.0
18/12/2022,01:53:41,0.001,0.0,0.0,0.0
18/12/2022,01:54:40,0.000,0.0,0.0,0.0
18/12/2022,01:55:41,-0.001,0.0,0.0,0.0
18/12/2022,01:56:40,0.000,0.0,0.0,0.0
18/12/2022,01:57:40,0.001,0.0,0.0,0.0
18/12/2022,01:58:40,0.000,0.0,0.0,0.0
18/12/2022,01:59:41,0.000,0.0,0.0,0.0
18/12/2022,02:00:41,0.000,0.0,0.0,0.0
18/12/2022,02:01:41,0.001,0.0,0.0,0.0
18/12/2022,02:02:41,-0.000,0.0,0.0,0.0
18/12/2022,02:03:41,0.000,0.0,0.0,0.0
18/12/2022,02:04:41,0.000,0.0,0.0,0.0
18/12/2022,02:05:40,0.000,0.0,0.0,0.0
18/12/2022,02:06:41,0.001,0.0,0.0,0.0
18/12/2022,02:07:40,0.001,0.0,0.0,0.0
18/12/2022,02:08:41,0.000,0.0,0.0,0.0
18/12/2022,02:09:41,0.001,0.0,0.0,0.0
18/12/2022,02:10:41,0.000,0.0,0.0,0.0
18/12/2022,02:11:41,-0.001,0.0,0.0,0.0
18/12/2022,02:12:41,0.000,0.0,0.0,0.0
18/12/2022,02:13:41,0.000,0.0,0.0,0.0
18/12/2022,02:14:41,0.001,0.0,0.0,0.0
18/12/2022,02:15:40,0.000,0.0,0.0,0.0
18/12/2022,02:16:41,0.000,0.0,0.0,0.0
18/12/2022,02:17:41,0.000,0.0,0.0,0.0
18/12/2022,02:18:41,0.000,0.0,0.0,0.0
18/12/2022,02:19:41,-0.002,0.0,0.0,0.0
18/12/2022,02:20:41,-0.001,0.0,0.0,0.0
18/12/2022,02:21:40,0.000,0.0,0.0,0.0
18/12/2022,02:22:41,-0.001,0.0,0.0,0.0
18/12/2022,02:23:41,-0.001,0.0,0.0,0.0
18/12/2022,02:24:41,0.000,0.0,0.0,0.0
18/12/2022,02:25:41,0.000,0.0,0.0,0.0
18/12/2022,02:26:41,0.000,0.0,0.0,0.0
18/12/2022,02:27:41,0.000,0.0,0.0,0.0
18/12/2022,02:28:41,0.000,0.0,0.0,0.0
18/12/2022,02:29:41,0.001,0.0,0.0,0.0
18/12/2022,02:30:40,0.000,0.0,0.0,0.0
18/12/2022,02:31:41,0.000,0.0,0.0,0.0
18/12/2022,02:32:41,0.000,0.0,0.0,0.0
18/12/2022,02:33:40,0.000,0.0,0.0,0.0
18/12/2022,02:34:41,0.000,0.0,0.0,0.0
18/12/2022,02:35:41,0.000,0.0,0.0,0.0
18/12/2022,02:36:41,0.000,0.0,0.0,0.0
18/12/2022,02:37:41,0.000,0.0,0.0,0.0
18/12/2022,02:38:41,0.001,0.0,0.0,0.0
18/12/2022,02:39:41,-0.000,0.0,0.0,0.0
18/12/2022,02:40:41,-0.001,0.0,0.0,0.0
18/12/2022,02:41:41,-0.001,0.0,0.0,0.0
18/12/2022,02:42:41,0.000,0.0,0.0,0.0
18/12/2022,02:43:40,0.001,0.0,0.0,0.0
18/12/2022,02:44:40,-0.000,0.0,0.0,0.0
18/12/2022,02:45:41,0.000,0.0,0.0,0.0
18/12/2022,02:46:41,0.000,0.0,0.0,0.0
18/12/2022,02:47:41,-0.001,0.0,0.0,0.0
18/12/2022,02:48:41,0.001,0.0,0.0,0.0
18/12/2022,02:49:41,-0.001,0.0,0.0,0.0
18/12/2022,02:50:41,0.000,0.0,0.0,0.0
18/12/2022,02:51:41,0.000,0.0,0.0,0.0
18/12/2022,02:52:41,0.000,0.0,0.0,0.0
18/12/2022,02:53:41,-0.000,0.0,0.0,0.0
18/12/2022,02:54:41,0.000,0.0,0.0,0.0
18/12/2022,02:55:41,0.001,0.0,0.0,0.0
18/12/2022,02:56:41,-0.000,0.0,0.0,0.0
18/12/2022,02:57:41,0.000,0.0,0.0,0.0
18/12/2022,02:58:41,-0.000,0.0,0.0,0.0
18/12/2022,02:59:44,-0.000,0.0,0.0,0.0
18/12/2022,03:00:42,0.000,0.0,0.0,0.0
18/12/2022,03:01:41,0.000,0.0,0.0,0.0
18/12/2022,03:02:41,0.000,0.0,0.0,0.0
18/12/2022,03:03:41,0.000,0.0,0.0,0.0
18/12/2022,03:04:40,0.000,0.0,0.0,0.0
18/12/2022,03:05:41,-0.000,0.0,0.0,0.0
18/12/2022,03:06:41,0.000,0.0,0.0,0.0
18/12/2022,03:07:41,-0.000,0.0,0.0,0.0
18/12/2022,03:08:40,-0.001,0.0,0.0,0.0
18/12/2022,03:09:41,0.000,0.0,0.0,0.0
18/12/2022,03:10:41,0.000,0.0,0.0,0.0
18/12/2022,03:11:41,-0.000,0.0,0.0,0.0
18/12/2022,03:12:41,0.000,0.0,0.0,0.0
18/12/2022,03:13:41,-0.001,0.0,0.0,0.0
18/12/2022,03:14:40,-0.000,0.0,0.0,0.0
18/12/2022,03:16:03,-0.000,0.0,0.0,0.0
18/12/2022,03:16:41,-0.000,0.0,0.0,0.0
18/12/2022,03:17:41,0.000,0.0,0.0,0.0
18/12/2022,03:18:41,0.000,0.0,0.0,0.0
18/12/2022,03:19:41,0.000,0.0,0.0,0.0
18/12/2022,03:20:41,0.000,0.0,0.0,0.0
18/12/2022,03:21:41,0.000,0.0,0.0,0.0
18/12/2022,03:22:41,-0.000,0.0,0.0,0.0
18/12/2022,03:23:41,0.000,0.0,0.0,0.0
18/12/2022,03:24:40,0.001,0.0,0.0,0.0
18/12/2022,03:25:41,0.001,0.0,0.0,0.0
18/12/2022,03:26:41,0.000,0.0,0.0,0.0
18/12/2022,03:27:41,-0.001,0.0,0.0,0.0
18/12/2022,03:28:41,-0.000,0.0,0.0,0.0
18/12/2022,03:29:41,0.000,0.0,0.0,0.0
18/12/2022,03:30:41,0.001,0.0,0.0,0.0
18/12/2022,03:31:41,-0.000,0.0,0.0,0.0
18/12/2022,03:32:42,-0.000,0.0,0.0,0.0
18/12/2022,03:33:41,0.000,0.0,0.0,0.0
18/12/2022,03:34:41,-0.000,0.0,0.0,0.0
18/12/2022,03:35:41,0.000,0.0,0.0,0.0
18/12/2022,03:36:41,0.000,0.0,0.0,0.0
18/12/2022,03:37:40,0.000,0.0,0.0,0.0
18/12/2022,03:38:41,0.000,0.0,0.0,0.0
18/12/2022,03:39:41,0.000,0.0,0.0,0.0
18/12/2022,03:40:41,-0.000,0.0,0.0,0.0
18/12/2022,03:41:41,-0.000,0.0,0.0,0.0
18/12/2022,03:42:41,-0.001,0.0,0.0,0.0
18/12/2022,03:43:41,-0.000,0.0,0.0,0.0
18/12/2022,03:44:41,0.000,0.0,0.0,0.0
18/12/2022,03:45:41,0.000,0.0,0.0,0.0
18/12/2022,03:46:41,0.000,0.0,0.0,0.0
18/12/2022,03:47:41,0.001,0.0,0.0,0.0
18/12/2022,03:48:41,0.001,0.0,0.0,0.0
18/12/2022,03:49:41,0.000,0.0,0.0,0.0
18/12/2022,03:50:41,-0.001,0.0,0.0,0.0
18/12/2022,03:51:41,0.000,0.0,0.0,0.0
18/12/2022,03:52:41,0.001,0.0,0.0,0.0
18/12/2022,03:53:41,-0.001,0.0,0.0,0.0
18/12/2022,03:54:40,0.000,0.0,0.0,0.0
18/12/2022,03:55:41,-0.000,0.0,0.0,0.0
18/12/2022,03:56:41,-0.001,0.0,0.0,0.0
18/12/2022,03:57:41,-0.000,0.0,0.0,0.0
18/12/2022,03:58:41,0.001,0.0,0.0,0.0
18/12/2022,03:59:41,0.000,0.0,0.0,0.0
18/12/2022,04:00:41,-0.001,0.0,0.0,0.0
18/12/2022,04:01:41,0.000,0.0,0.0,0.0
18/12/2022,04:02:41,0.000,0.0,0.0,0.0
18/12/2022,04:03:41,0.000,0.0,0.0,0.0
18/12/2022,04:04:41,0.001,0.0,0.0,0.0
18/12/2022,04:05:41,0.000,0.0,0.0,0.0
18/12/2022,04:06:41,-0.001,0.0,0.0,0.0
18/12/2022,04:07:41,0.000,0.0,0.0,0.0
18/12/2022,04:08:41,0.000,0.0,0.0,0.0
18/12/2022,04:09:41,-0.001,0.0,0.0,0.0
18/12/2022,04:10:41,0.000,0.0,0.0,0.0
18/12/2022,04:11:41,-0.001,0.0,0.0,0.0
18/12/2022,04:12:41,0.000,0.0,0.0,0.0
18/12/2022,04:13:41,-0.000,0.0,0.0,0.0
18/12/2022,04:14:41,-0.001,0.0,0.0,0.0
18/12/2022,04:15:41,0.000,0.0,0.0,0.0
18/12/2022,04:16:41,-0.000,0.0,0.0,0.0
18/12/2022,04:17:41,-0.000,0.0,0.0,0.0
18/12/2022,04:18:41,0.000,0.0,0.0,0.0
18/12/2022,04:19:41,0.001,0.0,0.0,0.0
18/12/2022,04:20:41,0.000,0.0,0.0,0.0
18/12/2022,04:21:41,-0.001,0.0,0.0,0.0
18/12/2022,04:22:41,0.000,0.0,0.0,0.0
18/12/2022,04:23:41,-0.000,0.0,0.0,0.0
18/12/2022,04:24:41,0.000,0.0,0.0,0.0
18/12/2022,04:25:41,-0.001,0.0,0.0,0.0
18/12/2022,04:26:41,0.000,0.0,0.0,0.0
18/12/2022,04:27:41,-0.000,0.0,0.0,0.0
18/12/2022,04:28:41,0.001,0.0,0.0,0.0
18/12/2022,04:29:41,-0.000,0.0,0.0,0.0
18/12/2022,04:30:41,-0.002,0.0,0.0,0.0
18/12/2022,04:31:41,-0.000,0.0,0.0,0.0
18/12/2022,04:32:41,-0.000,0.0,0.0,0.0
18/12/2022,04:33:41,-0.001,0.0,0.0,0.0
18/12/2022,04:34:41,0.000,0.0,0.0,0.0
18/12/2022,04:35:41,-0.000,0.0,0.0,0.0
18/12/2022,04:36:41,-0.000,0.0,0.0,0.0
18/12/2022,04:37:41,-0.000,0.0,0.0,0.0
18/12/2022,04:38:41,-0.000,0.0,0.0,0.0
18/12/2022,04:39:41,0.000,0.0,0.0,0.0
18/12/2022,04:40:40,-0.001,0.0,0.0,0.0
18/12/2022,04:41:41,-0.001,0.0,0.0,0.0
18/12/2022,04:42:41,-0.001,0.0,0.0,0.0
18/12/2022,04:43:41,-0.001,0.0,0.0,0.0
18/12/2022,04:44:41,0.000,0.0,0.0,0.0
18/12/2022,04:45:41,0.001,0.0,0.0,0.0
18/12/2022,04:46:41,0.001,0.0,0.0,0.0
18/12/2022,04:47:41,0.000,0.0,0.0,0.0
18/12/2022,04:48:41,-0.000,0.0,0.0,0.0
18/12/2022,04:49:41,-0.000,0.0,0.0,0.0
18/12/2022,04:50:41,-0.001,0.0,0.0,0.0
18/12/2022,04:51:41,-0.000,0.0,0.0,0.0
18/12/2022,04:52:43,0.000,0.0,0.0,0.0
18/12/2022,04:53:41,-0.001,0.0,0.0,0.0
18/12/2022,04:54:41,-0.000,0.0,0.0,0.0
18/12/2022,04:55:41,-0.000,0.0,0.0,0.0
18/12/2022,04:56:41,-0.001,0.0,0.0,0.0
18/12/2022,04:57:41,0.000,0.0,0.0,0.0
18/12/2022,04:58:41,-0.001,0.0,0.0,0.0
18/12/2022,04:59:41,0.000,0.0,0.0,0.0
18/12/2022,05:00:41,-0.001,0.0,0.0,0.0
18/12/2022,05:01:41,-0.000,0.0,0.0,0.0
18/12/2022,05:02:41,-0.001,0.0,0.0,0.0
18/12/2022,05:03:41,-0.000,0.0,0.0,0.0
18/12/2022,05:04:42,0.000,0.0,0.0,0.0
18/12/2022,05:05:41,-0.001,0.0,0.0,0.0
18/12/2022,05:06:41,-0.001,0.0,0.0,0.0
18/12/2022,05:07:42,0.000,0.0,0.0,0.0
18/12/2022,05:08:41,-0.000,0.0,0.0,0.0
18/12/2022,05:09:41,0.001,0.0,0.0,0.0
18/12/2022,05:10:41,-0.001,0.0,0.0,0.0
18/12/2022,05:11:41,0.001,0.0,0.0,0.0
18/12/2022,05:12:41,-0.000,0.0,0.0,0.0
18/12/2022,05:13:41,-0.000,0.0,0.0,0.0
18/12/2022,05:14:41,-0.000,0.0,0.0,0.0
18/12/2022,05:15:41,0.000,0.0,0.0,0.0
18/12/2022,05:16:41,-0.000,0.0,0.0,0.0
18/12/2022,05:17:41,-0.001,0.0,0.0,0.0
18/12/2022,05:18:41,0.001,0.0,0.0,0.0
18/12/2022,05:19:41,-0.001,0.0,0.0,0.0
18/12/2022,05:20:41,-0.000,0.0,0.0,0.0
18/12/2022,05:21:41,-0.000,0.0,0.0,0.0
18/12/2022,05:22:42,-0.000,0.0,0.0,0.0
18/12/2022,05:23:41,-0.001,0.0,0.0,0.0
18/12/2022,05:24:41,0.001,0.0,0.0,0.0
18/12/2022,05:25:41,-0.001,0.0,0.0,0.0
18/12/2022,05:26:41,0.000,0.0,0.0,0.0
18/12/2022,05:27:41,-0.001,0.0,0.0,0.0
18/12/2022,05:28:41,0.001,0.0,0.0,0.0
18/12/2022,05:29:41,-0.001,0.0,0.0,0.0
18/12/2022,05:30:41,0.000,0.0,0.0,0.0
18/12/2022,05:31:41,-0.000,0.0,0.0,0.0
18/12/2022,05:32:41,-0.000,0.0,0.0,0.0
18/12/2022,05:33:41,-0.000,0.0,0.0,0.0
18/12/2022,05:34:41,-0.000,0.0,0.0,0.0
18/12/2022,05:35:41,0.000,0.0,0.0,0.0
18/12/2022,05:36:41,-0.001,0.0,0.0,0.0
18/12/2022,05:37:41,0.000,0.0,0.0,0.0
18/12/2022,05:38:41,-0.001,0.0,0.0,0.0
18/12/2022,05:39:41,-0.000,0.0,0.0,0.0
18/12/2022,05:40:41,-0.000,0.0,0.0,0.0
18/12/2022,05:41:41,-0.000,0.0,0.0,0.0
18/12/2022,05:42:41,-0.001,0.0,0.0,0.0
18/12/2022,05:43:42,-0.001,0.0,0.0,0.0
18/12/2022,05:44:41,-0.001,0.0,0.0,0.0
18/12/2022,05:45:42,-0.001,0.0,0.0,0.0
18/12/2022,05:46:41,-0.001,0.0,0.0,0.0
18/12/2022,05:47:41,-0.001,0.0,0.0,0.0
18/12/2022,05:48:41,-0.001,0.0,0.0,0.0
18/12/2022,05:49:41,-0.000,0.0,0.0,0.0
18/12/2022,05:50:41,-0.000,0.0,0.0,0.0
18/12/2022,05:51:41,-0.000,0.0,0.0,0.0
18/12/2022,05:52:41,-0.000,0.0,0.0,0.0
18/12/2022,05:53:41,-0.001,0.0,0.0,0.0
18/12/2022,05:54:41,0.000,0.0,0.0,0.0
18/12/2022,05:55:41,-0.001,0.0,0.0,0.0
18/12/2022,05:56:41,-0.001,0.0,0.0,0.0
18/12/2022,05:57:41,-0.001,0.0,0.0,0.0
18/12/2022,05:58:42,-0.001,0.0,0.0,0.0
18/12/2022,05:59:41,-0.001,0.0,0.0,0.0
18/12/2022,06:00:41,-0.001,0.0,0.0,0.0
18/12/2022,06:01:41,-0.000,0.0,0.0,0.0
18/12/2022,06:02:41,-0.001,0.0,0.0,0.0
18/12/2022,06:03:42,-0.001,0.0,0.0,0.0
18/12/2022,06:04:41,-0.001,0.0,0.0,0.0
18/12/2022,06:05:41,-0.001,0.0,0.0,0.0
18/12/2022,06:06:42,-0.000,0.0,0.0,0.0
18/12/2022,06:07:41,-0.000,0.0,0.0,0.0
18/12/2022,06:08:41,-0.001,0.0,0.0,0.0
18/12/2022,06:09:41,-0.000,0.0,0.0,0.0
18/12/2022,06:10:41,0.000,0.0,0.0,0.0
18/12/2022,06:11:41,-0.001,0.0,0.0,0.0
18/12/2022,06:12:41,-0.001,0.0,0.0,0.0
18/12/2022,06:13:41,-0.001,0.0,0.0,0.0
18/12/2022,06:14:41,0.000,0.0,0.0,0.0
18/12/2022,06:15:41,0.000,0.0,0.0,0.0
18/12/2022,06:16:42,-0.002,0.0,0.0,0.0
18/12/2022,06:17:41,-0.001,0.0,0.0,0.0
18/12/2022,06:18:41,0.000,0.0,0.0,0.0
18/12/2022,06:19:41,-0.001,0.0,0.0,0.0
18/12/2022,06:20:41,-0.001,0.0,0.0,0.0
18/12/2022,06:21:41,0.000,0.0,0.0,0.0
18/12/2022,06:22:41,-0.001,0.0,0.0,0.0
18/12/2022,06:23:41,-0.001,0.0,0.0,0.0
18/12/2022,06:24:42,-0.001,0.0,0.0,0.0
18/12/2022,06:25:41,-0.001,0.0,0.0,0.0
18/12/2022,06:26:41,-0.001,0.0,0.0,0.0
18/12/2022,06:27:41,-0.001,0.0,0.0,0.0
18/12/2022,06:28:41,-0.000,0.0,0.0,0.0
18/12/2022,06:29:41,-0.001,0.0,0.0,0.0
18/12/2022,06:30:41,0.000,0.0,0.0,0.0
18/12/2022,06:31:41,-0.001,0.0,0.0,0.0
18/12/2022,06:32:41,-0.001,0.0,0.0,0.0
18/12/2022,06:33:41,-0.001,0.0,0.0,0.0
18/12/2022,06:34:41,-0.001,0.0,0.0,0.0
18/12/2022,06:35:41,0.001,0.0,0.0,0.0
18/12/2022,06:36:41,-0.001,0.0,0.0,0.0
18/12/2022,06:37:41,-0.001,0.0,0.0,0.0
18/12/2022,06:38:41,-0.000,0.0,0.0,0.0
18/12/2022,06:39:41,-0.001,0.0,0.0,0.0
18/12/2022,06:40:41,-0.001,0.0,0.0,0.0
18/12/2022,06:41:41,-0.001,0.0,0.0,0.0
18/12/2022,06:42:41,-0.001,0.0,0.0,0.0
18/12/2022,06:43:41,-0.001,0.0,0.0,0.0
18/12/2022,06:44:42,-0.000,0.0,0.0,0.0
18/12/2022,06:45:41,-0.001,0.0,0.0,0.0
18/12/2022,06:46:41,0.000,0.0,0.0,0.0
18/12/2022,06:47:41,-0.001,0.0,0.0,0.0
18/12/2022,06:48:41,-0.001,0.0,0.0,0.0
18/12/2022,06:49:41,-0.001,0.0,0.0,0.0
18/12/2022,06:50:41,-0.001,0.0,0.0,0.0
18/12/2022,06:51:41,-0.001,0.0,0.0,0.0
18/12/2022,06:52:42,-0.001,0.0,0.0,0.0
18/12/2022,06:53:41,-0.001,0.0,0.0,0.0
18/12/2022,06:54:42,-0.001,0.0,0.0,0.0
18/12/2022,06:55:41,-0.001,0.0,0.0,0.0
18/12/2022,06:56:42,-0.001,0.0,0.0,0.0
18/12/2022,06:57:41,-0.001,0.0,0.0,0.0
18/12/2022,06:58:41,0.000,0.0,0.0,0.0
18/12/2022,06:59:41,-0.001,0.0,0.0,0.0
18/12/2022,07:00:41,-0.001,0.0,0.0,0.0
18/12/2022,07:01:41,-0.001,0.0,0.0,0.0
18/12/2022,07:02:41,-0.001,0.0,0.0,0.0
18/12/2022,07:03:41,-0.002,0.0,0.0,0.0
18/12/2022,07:04:41,-0.001,0.0,0.0,0.0
18/12/2022,07:05:41,0.000,0.0,0.0,0.0
18/12/2022,07:06:42,-0.001,0.0,0.0,0.0
18/12/2022,07:07:42,-0.001,0.0,0.0,0.0
18/12/2022,07:08:41,-0.001,0.0,0.0,0.0
18/12/2022,07:09:41,-0.001,0.0,0.0,0.0
18/12/2022,07:10:41,-0.001,0.0,0.0,0.0
18/12/2022,07:11:41,-0.001,0.0,0.0,0.0
18/12/2022,07:12:41,-0.002,0.0,0.0,0.0
18/12/2022,07:13:41,-0.001,0.0,0.0,0.0
18/12/2022,07:14:40,-0.000,0.0,0.0,0.0
18/12/2022,07:16:04,-0.001,0.0,0.0,0.0
18/12/2022,07:16:41,-0.001,0.0,0.0,0.0
18/12/2022,07:17:42,-0.002,0.0,0.0,0.0
18/12/2022,07:18:41,-0.001,0.0,0.0,0.0
18/12/2022,07:19:41,0.000,0.0,0.0,0.0
18/12/2022,07:20:41,-0.002,0.0,0.0,0.0
18/12/2022,07:21:42,-0.002,0.0,0.0,0.0
18/12/2022,07:22:41,0.000,0.0,0.0,0.0
18/12/2022,07:23:42,-0.001,0.0,0.0,0.0
18/12/2022,07:24:41,-0.001,0.0,0.0,0.0
18/12/2022,07:25:42,-0.002,0.0,0.0,0.0
18/12/2022,07:26:41,-0.001,0.0,0.0,0.0
18/12/2022,07:27:41,-0.001,0.0,0.0,0.0
18/12/2022,07:28:41,-0.001,0.0,0.0,0.0
18/12/2022,07:29:41,-0.001,0.0,0.0,0.0
18/12/2022,07:30:41,-0.000,0.0,0.0,0.0
18/12/2022,07:31:41,-0.000,0.0,0.0,0.0
18/12/2022,07:32:42,-0.000,0.0,0.0,0.0
18/12/2022,07:33:41,-0.001,0.0,0.0,0.0
18/12/2022,07:34:41,-0.001,0.0,0.0,0.0
18/12/2022,07:35:43,-0.001,0.0,0.0,0.0
18/12/2022,07:36:41,-0.002,0.0,0.0,0.0
18/12/2022,07:37:41,0.000,0.0,0.0,0.0
18/12/2022,07:38:41,-0.001,0.0,0.0,0.0
18/12/2022,07:39:41,-0.001,0.0,0.0,0.0
18/12/2022,07:40:41,0.000,0.0,0.0,0.0
18/12/2022,07:41:42,-0.000,0.0,0.0,0.0
18/12/2022,07:42:41,-0.001,0.0,0.0,0.0
18/12/2022,07:43:41,-0.001,0.0,0.0,0.0
18/12/2022,07:44:41,-0.002,0.0,0.0,0.0
18/12/2022,07:45:41,-0.001,0.0,0.0,0.0
18/12/2022,07:46:41,-0.002,0.0,0.0,0.0
18/12/2022,07:47:41,-0.001,0.0,0.0,0.0
18/12/2022,07:48:42,-0.001,0.0,0.0,0.0
18/12/2022,07:49:41,-0.001,0.0,0.0,0.0
18/12/2022,07:50:42,-0.001,0.0,0.0,0.0
18/12/2022,07:51:41,-0.001,0.0,0.0,0.0
18/12/2022,07:52:41,-0.001,0.0,0.0,0.0
18/12/2022,07:53:41,-0.003,0.0,0.0,0.0
18/12/2022,07:54:41,-0.001,0.0,0.0,0.0
18/12/2022,07:55:42,-0.001,0.0,0.0,0.0
18/12/2022,07:56:41,-0.001,0.0,0.0,0.0
18/12/2022,07:57:41,-0.001,0.0,0.0,0.0
18/12/2022,07:58:41,-0.001,0.0,0.0,0.0
18/12/2022,07:59:41,-0.001,0.0,0.0,0.0
18/12/2022,08:00:41,-0.002,0.0,0.0,0.0
18/12/2022,08:01:41,-0.000,0.0,0.0,0.0
18/12/2022,08:02:41,-0.000,0.0,0.0,0.0
18/12/2022,08:03:42,-0.002,0.0,0.0,0.0
18/12/2022,08:04:41,-0.001,0.0,0.0,0.0
18/12/2022,08:05:42,-0.001,0.0,0.0,0.0
18/12/2022,08:06:41,0.000,0.0,0.0,0.0
18/12/2022,08:07:42,-0.000,0.0,0.0,0.0
18/12/2022,08:08:41,0.000,0.0,0.0,0.0
18/12/2022,08:09:41,-0.000,0.0,0.0,0.0
18/12/2022,08:10:41,-0.000,0.0,0.0,0.0
18/12/2022,08:11:42,0.000,0.0,0.0,0.0
18/12/2022,08:12:41,0.001,0.0,0.0,0.0
18/12/2022,08:13:42,-0.000,0.0,0.0,0.0
18/12/2022,08:14:41,-0.000,0.0,0.0,0.0
18/12/2022,08:15:42,0.000,0.0,0.0,0.0
18/12/2022,08:16:41,0.000,0.0,0.0,0.0
18/12/2022,08:17:41,0.001,0.0,0.0,0.0
18/12/2022,08:18:42,0.000,0.0,0.0,0.0
18/12/2022,08:19:41,0.001,0.0,0.0,0.0
18/12/2022,08:20:42,0.001,0.0,0.0,0.0
18/12/2022,08:21:41,0.001,0.0,0.0,0.0
18/12/2022,08:22:42,0.001,0.0,0.0,0.0
18/12/2022,08:23:42,0.001,0.0,0.0,0.0
18/12/2022,08:24:42,0.001,0.0,0.0,0.0
18/12/2022,08:25:41,0.002,0.0,0.0,0.0
18/12/2022,08:26:42,0.002,0.0,0.0,0.0
18/12/2022,08:27:42,0.001,0.0,0.0,0.0
18/12/2022,08:28:42,0.002,0.0,0.0,0.0
18/12/2022,08:29:41,0.001,0.0,0.0,0.0
18/12/2022,08:30:42,0.002,0.0,0.0,0.0
18/12/2022,08:31:42,0.002,0.0,0.0,0.0
18/12/2022,08:32:41,0.002,0.0,0.0,0.0
18/12/2022,08:33:41,0.002,0.0,0.0,0.0
18/12/2022,08:34:41,0.002,0.0,0.0,0.0
18/12/2022,08:35:42,0.002,0.0,0.0,0.0
18/12/2022,08:36:42,0.002,0.0,0.0,0.0
18/12/2022,08:37:42,0.002,0.0,0.0,0.0
18/12/2022,08:38:41,0.003,0.0,0.0,0.0
18/12/2022,08:39:41,0.002,0.0,0.0,0.0
18/12/2022,08:40:42,0.002,0.0,0.0,0.0
18/12/2022,08:41:42,0.003,0.0,0.0,0.0
18/12/2022,08:42:41,0.002,0.0,0.0,0.0
18/12/2022,08:43:42,0.002,0.0,0.0,0.0
18/12/2022,08:44:41,0.002,0.0,0.0,0.0
18/12/2022,08:45:41,0.003,0.0,0.0,0.0
18/12/2022,08:46:41,0.003,0.0,0.0,0.0
18/12/2022,08:47:41,0.003,0.0,0.0,0.0
18/12/2022,08:48:41,0.003,0.0,0.0,0.0
18/12/2022,08:49:41,0.003,0.0,0.0,0.0
18/12/2022,08:50:42,0.003,0.0,0.0,0.0
18/12/2022,08:51:41,0.002,0.0,0.0,0.0
18/12/2022,08:52:43,0.003,0.0,0.0,0.0
18/12/2022,08:53:42,0.004,0.0,0.0,0.0
18/12/2022,08:54:41,0.005,0.0,0.0,0.0
18/12/2022,08:55:42,0.004,0.0,0.0,0.0
18/12/2022,08:56:41,0.004,0.0,0.0,0.0
18/12/2022,08:57:42,0.005,0.0,0.0,0.0
18/12/2022,08:58:41,0.003,0.0,0.0,0.0
18/12/2022,08:59:42,0.004,0.0,0.0,0.0
18/12/2022,09:00:41,0.004,0.0,0.0,0.0
18/12/2022,09:01:39,0.004,0.0,0.0,0.0
18/12/2022,09:02:41,0.004,0.0,0.0,0.0
18/12/2022,09:03:42,0.004,0.0,0.0,0.0
18/12/2022,09:04:41,0.004,0.0,0.0,0.0
18/12/2022,09:05:41,0.005,0.0,0.0,0.0
18/12/2022,09:06:41,0.004,0.0,0.0,0.0
18/12/2022,09:07:41,0.005,0.0,0.0,0.0
18/12/2022,09:08:42,0.006,0.0,0.0,0.0
18/12/2022,09:09:41,0.005,0.0,0.0,0.0
18/12/2022,09:10:42,0.005,0.0,0.0,0.0
18/12/2022,09:11:41,0.005,0.0,0.0,0.0
18/12/2022,09:12:41,0.005,0.0,0.0,0.0
18/12/2022,09:13:42,0.006,0.0,0.0,0.0
18/12/2022,09:14:42,0.006,0.0,0.0,0.0
18/12/2022,09:15:41,0.005,0.0,0.0,0.0
18/12/2022,09:16:42,0.006,0.0,0.0,0.0
18/12/2022,09:17:41,0.005,0.0,0.0,0.0
18/12/2022,09:18:42,0.007,0.0,0.0,0.0
18/12/2022,09:19:41,0.007,0.0,0.0,0.0
18/12/2022,09:20:41,0.007,0.0,0.0,0.0
18/12/2022,09:21:42,0.007,0.0,0.0,0.0
18/12/2022,09:22:42,0.007,0.0,0.001,0.001
18/12/2022,09:23:41,0.007,0.0,0.001,0.0
18/12/2022,09:24:42,0.007,0.0,0.001,0.0
18/12/2022,09:25:42,0.007,0.0,0.001,0.0
18/12/2022,09:26:42,0.008,0.0,0.001,0.0
18/12/2022,09:27:42,0.008,0.0,0.001,0.0
18/12/2022,09:28:42,0.009,0.0,0.001,0.0
18/12/2022,09:29:42,0.010,0.0,0.002,0.001
18/12/2022,09:30:41,0.009,0.0,0.002,0.0
18/12/2022,09:31:42,0.010,0.0,0.002,0.0
18/12/2022,09:32:41,0.011,0.0,0.002,0.0
18/12/2022,09:33:42,0.012,0.0,0.002,0.0
18/12/2022,09:34:41,0.013,0.0,0.002,0.0
18/12/2022,09:35:41,0.015,0.0,0.003,0.001
18/12/2022,09:36:41,0.013,0.0,0.003,0.0
18/12/2022,09:37:41,0.014,0.0,0.003,0.0
18/12/2022,09:38:42,0.014,0.0,0.003,0.0
18/12/2022,09:39:41,0.015,0.0,0.004,0.001
18/12/2022,09:40:42,0.016,0.0,0.004,0.0
18/12/2022,09:41:41,0.017,0.0,0.004,0.0
18/12/2022,09:42:42,0.017,0.0,0.004,0.0
18/12/2022,09:43:41,0.018,0.0,0.005,0.001
18/12/2022,09:44:42,0.018,0.0,0.005,0.0
18/12/2022,09:45:41,0.019,0.0,0.005,0.0
18/12/2022,09:46:41,0.020,0.0,0.006,0.001
18/12/2022,09:47:41,0.021,0.0,0.006,0.0
18/12/2022,09:48:41,0.021,0.0,0.006,0.0
18/12/2022,09:49:42,0.021,0.0,0.007,0.001
18/12/2022,09:50:41,0.022,0.0,0.007,0.0
18/12/2022,09:51:42,0.021,0.0,0.007,0.0
18/12/2022,09:52:41,0.022,0.0,0.008,0.001
18/12/2022,09:53:42,0.022,0.0,0.008,0.0
18/12/2022,09:54:42,0.021,0.0,0.008,0.0
18/12/2022,09:55:42,0.022,0.0,0.009,0.001
18/12/2022,09:56:41,0.022,0.0,0.009,0.0
18/12/2022,09:57:41,0.022,0.0,0.01,0.001
18/12/2022,09:58:42,0.023,0.0,0.01,0.0
18/12/2022,09:59:42,0.022,0.0,0.01,0.0
18/12/2022,10:00:42,0.023,0.0,0.011,0.001
18/12/2022,10:01:41,0.021,0.0,0.011,0.0
18/12/2022,10:02:42,0.023,0.0,0.011,0.0
18/12/2022,10:03:41,0.024,0.0,0.012,0.001
18/12/2022,10:04:42,0.027,0.0,0.012,0.0
18/12/2022,10:05:41,0.027,0.0,0.013,0.001
18/12/2022,10:06:42,0.028,0.0,0.013,0.0
18/12/2022,10:07:41,0.028,0.0,0.014,0.001
18/12/2022,10:08:43,0.029,0.0,0.014,0.0
18/12/2022,10:09:42,0.029,0.0,0.014,0.0
18/12/2022,10:10:42,0.030,0.0,0.015,0.001
18/12/2022,10:11:42,0.032,0.0,0.016,0.001
18/12/2022,10:12:42,0.033,0.0,0.016,0.0
18/12/2022,10:13:41,0.033,0.0,0.017,0.001
18/12/2022,10:14:42,0.035,0.0,0.017,0.0
18/12/2022,10:15:41,0.036,0.0,0.018,0.001
18/12/2022,10:16:42,0.038,0.0,0.018,0.0
18/12/2022,10:17:42,0.038,0.0,0.019,0.001